When you browse on this site, cookies collect data to enhance your experience and personalize the content and advertising you see.
Visit our Privacy Policy to learn more. By continuing to use the site, you agree to this use of cookies and data.
  • In Latvia
  • List of Countries
  • For 7 days
  • Water Temperature
  • Weather Map
  • Weather Widgets
  • user-avatar
    Login

    Hourly Weather Gold Coast

    Today, 19 August, Monday

    Time Temperature Precipitation Wind Pressure Humidity
    00:00 +14°C° 0 mm 2 mps 759 mmHg 93%
    01:00 +13°C° 0 mm 3 mps 758 mmHg 94%
    02:00 +13°C° 0 mm 3 mps 758 mmHg 93%
    03:00 +13°C° 0 mm 3 mps 757 mmHg 93%
    04:00 +13°C° 0 mm 3 mps 757 mmHg 94%
    05:00 +13°C° 0 mm 4 mps 757 mmHg 92%
    06:00 +14°C° 0 mm 4 mps 758 mmHg 89%
    07:00 +14°C° 0 mm 4 mps 758 mmHg 87%
    08:00 +17°C° 0 mm 4 mps 758 mmHg 73%
    09:00 +20°C° 0 mm 5 mps 758 mmHg 60%
    10:00 +23°C° 0 mm 5 mps 757 mmHg 44%
    11:00 +25°C° 0 mm 5 mps 757 mmHg 40%
    12:00 +27°C° 0 mm 5 mps 757 mmHg 36%
    13:00 +28°C° 0 mm 5 mps 756 mmHg 32%
    14:00 +27°C° 0 mm 5 mps 756 mmHg 31%
    15:00 +27°C° 0 mm 5 mps 756 mmHg 31%
    16:00 +26°C° 0 mm 5 mps 756 mmHg 30%
    17:00 +22°C° 0 mm 5 mps 757 mmHg 33%
    18:00 +19°C° 0 mm 5 mps 758 mmHg 35%
    19:00 +15°C° 0 mm 5 mps 760 mmHg 38%
    20:00 +14°C° 0 mm 4 mps 760 mmHg 42%
    21:00 +13°C° 0 mm 4 mps 761 mmHg 46%
    22:00 +12°C° 0 mm 4 mps 762 mmHg 49%
    23:00 +11°C° 0 mm 4 mps 762 mmHg 49%

    Tomorrow, 20 August, Tuesday

    Time Temperature Precipitation Wind Pressure Humidity
    00:00 +10°C° 0 mm 5 mps 762 mmHg 48%
    01:00 +9°C° 0 mm 5 mps 763 mmHg 48%
    02:00 +8°C° 0 mm 5 mps 763 mmHg 50%
    03:00 +7°C° 0 mm 5 mps 763 mmHg 52%
    04:00 +6°C° 0 mm 5 mps 763 mmHg 54%
    05:00 +6°C° 0 mm 5 mps 763 mmHg 54%
    06:00 +6°C° 0 mm 5 mps 764 mmHg 54%
    07:00 +6°C° 0 mm 4 mps 764 mmHg 54%
    08:00 +10°C° 0 mm 4 mps 764 mmHg 45%
    09:00 +14°C° 0 mm 3 mps 764 mmHg 35%
    10:00 +18°C° 0 mm 3 mps 764 mmHg 26%
    11:00 +19°C° 0 mm 3 mps 763 mmHg 25%
    12:00 +20°C° 0 mm 3 mps 763 mmHg 23%
    13:00 +22°C° 0 mm 3 mps 762 mmHg 21%
    14:00 +21°C° 0 mm 2 mps 762 mmHg 26%
    15:00 +20°C° 0 mm 2 mps 762 mmHg 32%
    16:00 +18°C° 0 mm 2 mps 761 mmHg 37%
    17:00 +16°C° 0 mm 2 mps 762 mmHg 48%
    18:00 +13°C° 0 mm 2 mps 762 mmHg 59%
    19:00 +10°C° 0 mm 1 mps 762 mmHg 70%
    20:00 +9°C° 0 mm 2 mps 762 mmHg 71%
    21:00 +9°C° 0 mm 2 mps 762 mmHg 71%
    22:00 +9°C° 0 mm 3 mps 762 mmHg 72%
    23:00 +8°C° 0 mm 3 mps 762 mmHg 72%

    Day after tomorrow, 21 August, Wednesday

    Time Temperature Precipitation Wind Pressure Humidity
    00:00 +8°C° 0 mm 2 mps 762 mmHg 71%
    01:00 +8°C° 0 mm 2 mps 762 mmHg 71%
    02:00 +8°C° 0 mm 2 mps 761 mmHg 68%
    03:00 +7°C° 0 mm 2 mps 761 mmHg 66%
    04:00 +7°C° 0 mm 2 mps 761 mmHg 63%
    05:00 +7°C° 0 mm 2 mps 761 mmHg 62%
    06:00 +7°C° 0 mm 2 mps 761 mmHg 60%
    07:00 +8°C° 0 mm 2 mps 761 mmHg 58%
    08:00 +12°C° 0 mm 2 mps 761 mmHg 48%
    09:00 +16°C° 0 mm 2 mps 761 mmHg 38%
    10:00 +20°C° 0 mm 2 mps 760 mmHg 28%
    11:00 +21°C° 0 mm 2 mps 759 mmHg 26%
    12:00 +22°C° 0 mm 3 mps 758 mmHg 24%
    13:00 +25°C° 0 mm 3 mps 757 mmHg 22%
    14:00 +25°C° 0 mm 3 mps 757 mmHg 25%
    15:00 +24°C° 0 mm 3 mps 757 mmHg 27%
    16:00 +24°C° 0 mm 3 mps 756 mmHg 30%
    17:00 +21°C° 0 mm 4 mps 757 mmHg 35%
    18:00 +17°C° 0 mm 5 mps 757 mmHg 41%
    19:00 +15°C° 0 mm 5 mps 757 mmHg 47%
    20:00 +14°C° 0 mm 5 mps 758 mmHg 51%
    21:00 +13°C° 0 mm 5 mps 758 mmHg 56%
    22:00 +12°C° 0 mm 4 mps 758 mmHg 60%
    23:00 +11°C° 0 mm 4 mps 758 mmHg 65%

    22 August, Thursday

    Time Temperature Precipitation Wind Pressure Humidity
    00:00 +10°C° 0 mm 3 mps 758 mmHg 69%
    01:00 +9°C° 0 mm 3 mps 758 mmHg 74%
    02:00 +9°C° 0 mm 3 mps 758 mmHg 76%
    03:00 +8°C° 0 mm 2 mps 758 mmHg 79%
    04:00 +8°C° 0 mm 2 mps 758 mmHg 81%
    05:00 +8°C° 0 mm 2 mps 758 mmHg 78%
    06:00 +8°C° 0 mm 2 mps 758 mmHg 75%
    07:00 +9°C° 0 mm 2 mps 759 mmHg 72%
    08:00 +13°C° 0 mm 2 mps 759 mmHg 60%
    09:00 +17°C° 0 mm 2 mps 758 mmHg 48%
    10:00 +20°C° 0 mm 2 mps 758 mmHg 35%
    11:00 +21°C° 0 mm 2 mps 758 mmHg 32%
    12:00 +24°C° 0 mm 3 mps 757 mmHg 29%
    13:00 +25°C° 0 mm 3 mps 756 mmHg 26%
    14:00 +25°C° 0 mm 3 mps 756 mmHg 27%
    15:00 +25°C° 0 mm 3 mps 756 mmHg 28%
    16:00 +25°C° 0 mm 3 mps 755 mmHg 29%
    17:00 +21°C° 0 mm 3 mps 756 mmHg 37%
    18:00 +18°C° 0 mm 3 mps 757 mmHg 45%
    19:00 +16°C° 0 mm 2 mps 758 mmHg 53%
    20:00 +14°C° 0 mm 3 mps 758 mmHg 59%
    21:00 +13°C° 0 mm 3 mps 759 mmHg 66%
    22:00 +12°C° 0 mm 4 mps 759 mmHg 73%
    23:00 +12°C° 0 mm 4 mps 759 mmHg 76%

    23 August, Friday

    Time Temperature Precipitation Wind Pressure Humidity
    00:00 +11°C° 0 mm 4 mps 760 mmHg 78%
    01:00 +11°C° 0 mm 4 mps 760 mmHg 81%
    02:00 +10°C° 0 mm 4 mps 760 mmHg 79%
    03:00 +10°C° 0 mm 4 mps 760 mmHg 77%
    04:00 +8°C° 0 mm 5 mps 760 mmHg 75%
    05:00 +8°C° 0 mm 5 mps 761 mmHg 73%
    06:00 +8°C° 0 mm 4 mps 761 mmHg 72%
    07:00 +8°C° 0 mm 4 mps 762 mmHg 71%
    08:00 +12°C° 0 mm 4 mps 762 mmHg 61%
    09:00 +15°C° 0 mm 4 mps 763 mmHg 51%
    10:00 +19°C° 0 mm 4 mps 763 mmHg 42%
    11:00 +20°C° 0 mm 4 mps 763 mmHg 39%
    12:00 +21°C° 0 mm 4 mps 762 mmHg 37%
    13:00 +22°C° 0 mm 4 mps 762 mmHg 35%
    14:00 +21°C° 0 mm 5 mps 762 mmHg 38%
    15:00 +21°C° 0 mm 5 mps 762 mmHg 42%
    16:00 +20°C° 0 mm 6 mps 762 mmHg 45%
    17:00 +17°C° 0 mm 5 mps 762 mmHg 56%
    18:00 +14°C° 0 mm 5 mps 763 mmHg 67%
    19:00 +12°C° 0 mm 4 mps 763 mmHg 77%
    20:00 +11°C° 0 mm 4 mps 763 mmHg 81%
    21:00 +11°C° 0 mm 3 mps 764 mmHg 84%
    22:00 +10°C° 0 mm 3 mps 764 mmHg 88%
    23:00 +10°C° 0 mm 3 mps 764 mmHg 89%

    24 August, Saturday

    Time Temperature Precipitation Wind Pressure Humidity
    00:00 +10°C° 0 mm 3 mps 764 mmHg 90%
    01:00 +10°C° 0 mm 3 mps 764 mmHg 91%
    02:00 +9°C° 0 mm 2 mps 763 mmHg 92%
    03:00 +9°C° 0 mm 2 mps 763 mmHg 92%
    04:00 +9°C° 0 mm 2 mps 763 mmHg 93%
    05:00 +10°C° 0 mm 2 mps 763 mmHg 90%
    06:00 +10°C° 0 mm 2 mps 764 mmHg 86%
    07:00 +12°C° 0 mm 1 mps 764 mmHg 83%
    08:00 +15°C° 0 mm 1 mps 764 mmHg 71%
    09:00 +19°C° 0 mm 1 mps 764 mmHg 59%
    10:00 +22°C° 0 mm 1 mps 764 mmHg 47%
    11:00 +21°C° 0 mm 2 mps 763 mmHg 47%
    12:00 +21°C° 0 mm 2 mps 762 mmHg 46%
    13:00 +22°C° 0 mm 3 mps 761 mmHg 45%
    14:00 +21°C° 0 mm 3 mps 761 mmHg 46%
    15:00 +21°C° 0 mm 4 mps 761 mmHg 47%
    16:00 +21°C° 0 mm 4 mps 760 mmHg 48%
    17:00 +18°C° 0 mm 4 mps 760 mmHg 59%
    18:00 +16°C° 0 mm 3 mps 761 mmHg 69%
    19:00 +12°C° 0 mm 3 mps 761 mmHg 80%
    20:00 +12°C° 0 mm 3 mps 761 mmHg 83%
    21:00 +11°C° 0 mm 3 mps 761 mmHg 85%
    22:00 +11°C° 0 mm 3 mps 762 mmHg 88%
    23:00 +11°C° 0 mm 3 mps 761 mmHg 89%
    Show more